This is the latest recevied weather packets stored in our database for station/object KC4GS-13. If no packets are shown the sender has not sent any weather packets the latest 10 day(s).
| Time | Temp. | Humidity | Pressure | Rain* | Wind** | Luminosity | Snow |
|---|---|---|---|---|---|---|---|
| 1787436975 | 35° C | 47% | 1013.9 hPa | 0 mm | - | 240 W/m² | - |
| 1787436672 | 35° C | 47% | 1013.8 hPa | 0 mm | - | 253 W/m² | - |
| 1787436366 | 35° C | 46% | 1013.7 hPa | 0 mm | - | 275 W/m² | - |
| 1787436061 | 35.56° C | 46% | 1013.8 hPa | 0 mm | - | 296 W/m² | - |
| 1787435756 | 35.56° C | 44% | 1013.8 hPa | 0 mm | - | 299 W/m² | - |
| 1787435452 | 35° C | 44% | 1013.7 hPa | 0 mm | - | 312 W/m² | - |
| 1787435149 | 35° C | 44% | 1013.7 hPa | 0 mm | - | 362 W/m² | - |
| 1787434844 | 35° C | 46% | 1014 hPa | 0 mm | - | 358 W/m² | - |
| 1787434541 | 35.56° C | 44% | 1013.9 hPa | 0 mm | - | 383 W/m² | - |
| 1787434236 | 35.56° C | 44% | 1013.9 hPa | 0 mm | - | 401 W/m² | - |
| 1787433932 | 35.56° C | 44% | 1014.2 hPa | 0 mm | - | 432 W/m² | - |
| 1787433631 | 36.11° C | 47% | 1014 hPa | 0 mm | - | 455 W/m² | - |
| 1787433327 | 35.56° C | 48% | 1013.9 hPa | 0 mm | - | 469 W/m² | - |
| 1787433024 | 35.56° C | 50% | 1014.2 hPa | 0 mm | - | 477 W/m² | - |
| 1787432720 | 35.56° C | 50% | 1014 hPa | 0 mm | - | 513 W/m² | - |
| 1787432420 | 35° C | 51% | 1014.1 hPa | 0 mm | - | 461 W/m² | - |
| 1787432115 | 35° C | 53% | 1014.2 hPa | 0 mm | - | 515 W/m² | - |
| 1787431813 | 35° C | 54% | 1014.3 hPa | 0 mm | - | 557 W/m² | - |
| 1787431509 | 35° C | 53% | 1014.8 hPa | 0 mm | - | 580 W/m² | - |
| 1787431205 | 35° C | 54% | 1014.5 hPa | 0 mm | - | 599 W/m² | - |
| 1787430901 | 34.44° C | 52% | 1014.6 hPa | 0 mm | - | 605 W/m² | - |
| 1787430596 | 34.44° C | 52% | 1014.7 hPa | 0 mm | - | 598 W/m² | - |
| 1787430293 | 33.33° C | 57% | 1014.6 hPa | 0 mm | - | 583 W/m² | - |
| 1787429989 | 33.89° C | 59% | 1014.4 hPa | 0 mm | - | 96 W/m² | - |
| 1787429684 | 34.44° C | 56% | 1014.5 hPa | 0 mm | - | 501 W/m² | - |
* Rain latest hour (hover to see other rain measurements)
** Current wind speed in m/s (hover to see current wind gust speed)